Decatur, IL

5:26 AM CDT on June 25, 2017 (GMT -0500)
Decatur

Weather History for KDEC - November, 2011

Change the Weather History Date:

Monday, November 21, 2011

  Actual Average Record
Temperature  
Mean Temperature 44 °F 40 °F  
Max Temperature 47 °F 49 °F 64 °F (2007)
Min Temperature 41 °F 32 °F 11 °F (2014)
Degree Days  
Heating Degree Days 21 25  
Month to date heating degree days 313 421  
Since 1 July heating degree days 713 839  
Cooling Degree Days 0 0  
Month to date cooling degree days 0 0  
Year to date cooling degree days 1327 1048  
Moisture  
Dew Point 41 °F    
Average Humidity 85    
Maximum Humidity 93    
Minimum Humidity 76    
Precipitation  
Precipitation 0.00 in 0.12 in 1.85 in (2007)
Month to date precipitation 2.04 2.38  
Year to date precipitation 30.24 34.86  
Sea Level Pressure  
Sea Level Pressure 30.19 in    
Wind  
Wind Speed 10 mph (ENE)    
Max Wind Speed 16 mph    
Max Gust Speed 18 mph    
Visibility 7 miles    
Events      
T = Trace of Precipitation, MM = Missing Value Source: NWS Daily Summary

Daily Weather History Graph

Daily Weather History Graph

Search for Another Location

Airport or City:

Trip Planner

Search our weather history database for the weather conditions in past years. The results will help you decide how hot, cold, wet, or windy it might be!

Date:

Astronomy

Nov. 21, 2011 Rise Set
Actual Time 6:46 AM CST 4:35 PM CST
Civil Twilight 6:17 AM CST 5:04 PM CST
Nautical Twilight 5:44 AM CST 5:37 PM CST
Astronomical Twilight 5:12 AM CST 6:10 PM CST
Moon 2:25 AM CST (11/21) 1:57 PM CST (11/21)
Length of Visible Light 10h 47m
Length of Day
9h 48m
Waning Crescent, 17% of the Moon is Illuminated
Nov 21
Waning Crescent
Nov 25
New
Dec 2
First Quarter
Dec 10
Full
Dec 17
Last Quarter

Hourly Weather History & Observations

Time (CST) Temp. Windchill Dew Point Humidity Pressure Visibility Wind Dir Wind Speed Gust Speed Precip Events Conditions
12:54 AM 42.1 °F 36.1 °F 36.0 °F 79% 30.24 in 10.0 mi ENE 10.4 mph - N/A   Overcast
1:54 AM 42.1 °F 35.7 °F 37.0 °F 82% 30.21 in 10.0 mi ENE 11.5 mph - N/A   Overcast
2:10 AM 42.8 °F 36.2 °F 37.4 °F 81% 30.20 in 10.0 mi ENE 12.7 mph - N/A   Overcast
2:54 AM 42.1 °F 36.1 °F 37.0 °F 82% 30.21 in 10.0 mi ENE 10.4 mph - N/A   Overcast
3:54 AM 42.1 °F 36.6 °F 37.0 °F 82% 30.22 in 10.0 mi ENE 9.2 mph - N/A   Overcast
4:43 AM 42.8 °F 35.8 °F 35.6 °F 76% 30.20 in 10.0 mi ENE 13.8 mph - N/A   Overcast
4:54 AM 42.1 °F 36.1 °F 37.0 °F 82% 30.22 in 10.0 mi ENE 10.4 mph - N/A   Overcast
5:54 AM 42.1 °F 36.1 °F 37.0 °F 82% 30.22 in 10.0 mi ENE 10.4 mph - N/A   Overcast
6:36 AM 42.8 °F 38.0 °F 37.4 °F 81% 30.22 in 10.0 mi ENE 8.1 mph - N/A   Overcast
6:47 AM 42.8 °F 38.6 °F 37.4 °F 81% 30.23 in 10.0 mi ENE 6.9 mph - N/A   Overcast
6:54 AM 42.1 °F 37.1 °F 37.9 °F 85% 30.25 in 10.0 mi ENE 8.1 mph - N/A   Overcast
7:54 AM 42.1 °F 35.2 °F 37.9 °F 85% 30.25 in 10.0 mi NE 12.7 mph - N/A   Overcast
8:54 AM 43.0 °F 36.0 °F 39.0 °F 86% 30.24 in 10.0 mi NE 13.8 mph - N/A   Overcast
9:54 AM 44.1 °F 38.6 °F 39.0 °F 82% 30.24 in 10.0 mi ENE 10.4 mph - N/A   Overcast
10:54 AM 46.0 °F 41.0 °F 41.0 °F 83% 30.22 in 9.0 mi ENE 10.4 mph - N/A   Overcast
11:54 AM 46.4 °F 42.4 °F 42.8 °F 87% 30.19 in 9.0 mi ENE 8.1 mph - N/A   Overcast
12:54 PM 46.9 °F - 42.1 °F 83% 30.19 in 7.0 mi NE 10.4 mph - N/A   Overcast
1:54 PM 46.0 °F 41.9 °F 43.0 °F 89% 30.17 in 3.0 mi NNE 8.1 mph - N/A   Overcast
2:33 PM 46.4 °F 41.9 °F 44.6 °F 93% 30.16 in 2.0 mi NE 9.2 mph - N/A   Overcast
2:54 PM 46.9 °F - 44.1 °F 90% 30.16 in 1.8 mi NE 10.4 mph - N/A   Overcast
3:47 PM 46.4 °F 41.5 °F 44.6 °F 93% 30.14 in 2.0 mi NE 10.4 mph - N/A   Overcast
3:54 PM 46.0 °F 41.0 °F 44.1 °F 93% 30.15 in 1.8 mi ENE 10.4 mph - N/A   Overcast
4:12 PM 46.4 °F 41.5 °F 44.6 °F 93% 30.15 in 2.0 mi ENE 10.4 mph - N/A   Overcast
4:54 PM 46.4 °F 41.9 °F 44.6 °F 93% 30.15 in 2.5 mi ENE 9.2 mph - N/A   Overcast
5:54 PM 46.0 °F 41.9 °F 45.0 °F 96% 30.16 in 2.0 mi ENE 8.1 mph - N/A   Overcast
6:54 PM 46.0 °F 41.9 °F 44.1 °F 93% 30.14 in 5.0 mi ENE 8.1 mph - N/A   Overcast
7:54 PM 46.0 °F 41.4 °F 43.0 °F 89% 30.15 in 6.0 mi ENE 9.2 mph - N/A   Overcast
8:54 PM 46.4 °F 41.9 °F 42.8 °F 87% 30.13 in 6.0 mi East 9.2 mph - N/A   Overcast
9:54 PM 46.0 °F 41.0 °F 43.0 °F 89% 30.14 in 6.0 mi East 10.4 mph - N/A   Overcast
10:54 PM 46.0 °F 41.9 °F 43.0 °F 89% 30.15 in 5.0 mi East 8.1 mph - N/A   Overcast
11:54 PM 45.0 °F 38.9 °F 42.1 °F 90% 30.11 in 4.0 mi ENE 12.7 mph - N/A   Overcast